Altus AFB, OK

10:46 PM CDT on August 23, 2017 (GMT -0500)
Altus Air Force Base

Weather History for KLTS - October, 2013

Change the Weather History Date:

Wednesday, October 2, 2013

  Actual Average Record
Temperature  
Mean Temperature 77 °F -  
Max Temperature 88 °F 78 °F 96 °F (2000)
Min Temperature 66 °F 56 °F 46 °F (2001)
Cooling Degree Days 12    
Growing Degree Days 27 (Base 50)    
Moisture  
Dew Point 66 °F    
Average Humidity 71    
Maximum Humidity 99    
Minimum Humidity 48    
Precipitation  
Precipitation 0.00 in - - ()
Sea Level Pressure  
Sea Level Pressure 29.86 in    
Wind  
Wind Speed 12 mph (SE)    
Max Wind Speed 21 mph    
Max Gust Speed 28 mph    
Visibility 10 miles    
Events      
Averages and records for this station are not official NWS values.
T = Trace of Precipitation, MM = Missing Value Source: NWS Daily Summary

Daily Weather History Graph

Daily Weather History Graph

Search for Another Location

Airport or City:

Trip Planner

Search our weather history database for the weather conditions in past years. The results will help you decide how hot, cold, wet, or windy it might be!

Date:

Astronomy

Oct. 02, 2013 Rise Set
Actual Time 7:32 AM CDT 7:19 PM CDT
Civil Twilight 7:07 AM CDT 7:44 PM CDT
Nautical Twilight 6:38 AM CDT 8:13 PM CDT
Astronomical Twilight 6:08 AM CDT 8:42 PM CDT
Moon 5:11 AM CDT (10/2) 5:52 PM CDT (10/2)
Length of Visible Light 12h 36m
Length of Day
11h 46m
Waning Crescent, 6% of the Moon is Illuminated
Oct 2
Waning Crescent
Oct 4
New
Oct 11
First Quarter
Oct 18
Full
Oct 26
Last Quarter

Hourly Weather History & Observations

Time (CDT) Temp. Heat Index Dew Point Humidity Pressure Visibility Wind Dir Wind Speed Gust Speed Precip Events Conditions
12:58 AM 70.0 °F - 59.5 °F 69% 29.87 in 10.0 mi SE 9.2 mph - N/A   Clear
1:58 AM 68.7 °F - 60.3 °F 74% 29.87 in 10.0 mi SE 8.1 mph - N/A   Clear
2:58 AM 68.0 °F - 60.6 °F 77% 29.86 in 10.0 mi ESE 5.8 mph - N/A   Clear
3:58 AM 67.5 °F - 60.8 °F 79% 29.85 in 10.0 mi ESE 8.1 mph - N/A   Clear
4:58 AM 67.1 °F - 61.5 °F 82% 29.85 in 10.0 mi ESE 9.2 mph - N/A   Clear
5:58 AM 67.1 °F - 62.6 °F 85% 29.85 in 10.0 mi SE 9.2 mph - N/A   Clear
6:58 AM 66.6 °F - 64.2 °F 92% 29.86 in 10.0 mi SE 9.2 mph - N/A   Clear
7:58 AM 66.6 °F - 66.2 °F 99% 29.88 in 10.0 mi SE 9.2 mph - N/A   Clear
8:58 AM 70.5 °F - 67.6 °F 91% 29.89 in 10.0 mi SE 17.3 mph - N/A   Clear
9:28 AM 71.6 °F - 68.0 °F 88% 29.94 in 10.0 mi SE 17.3 mph - N/A   Mostly Cloudy
9:58 AM 73.2 °F - 69.1 °F 87% 29.90 in 10.0 mi SE 18.4 mph - N/A   Overcast
10:48 AM 77.0 °F - 69.8 °F 78% 29.94 in 10.0 mi SSE 16.1 mph 24.2 mph N/A   Overcast
10:58 AM 77.9 °F - 70.0 °F 76% 29.90 in 10.0 mi SSE 17.3 mph 24.2 mph N/A   Overcast
11:28 AM 78.8 °F - 69.8 °F 74% 29.94 in 10.0 mi SSE 15.0 mph 24.2 mph N/A   Overcast
11:58 AM 80.8 °F 84.1 °F 69.8 °F 69% 29.89 in 10.0 mi SSE 19.6 mph 27.6 mph N/A   Mostly Cloudy
12:08 PM 80.6 °F 83.9 °F 69.8 °F 70% 29.93 in 10.0 mi South 16.1 mph - N/A   Mostly Cloudy
12:48 PM 84.2 °F 88.4 °F 69.8 °F 62% 29.91 in 10.0 mi SSE 19.6 mph 25.3 mph N/A   Scattered Clouds
12:58 PM 84.2 °F 88.4 °F 69.8 °F 62% 29.86 in 10.0 mi South 19.6 mph 27.6 mph N/A   Mostly Cloudy
1:08 PM 84.2 °F 88.4 °F 69.8 °F 62% 29.90 in 10.0 mi South 16.1 mph - N/A   Scattered Clouds
1:58 PM 86.0 °F 89.7 °F 68.9 °F 56% 29.84 in 10.0 mi South 17.3 mph 26.5 mph N/A   Scattered Clouds
2:58 PM 87.4 °F 90.8 °F 67.8 °F 52% 29.81 in 10.0 mi SSE 16.1 mph - N/A   Scattered Clouds
3:58 PM 88.5 °F 91.2 °F 66.4 °F 48% 29.80 in 10.0 mi SSE 20.7 mph 25.3 mph N/A   Scattered Clouds
4:58 PM 88.0 °F 90.7 °F 66.4 °F 49% 29.78 in 10.0 mi SSE 20.7 mph 27.6 mph N/A   Partly Cloudy
5:58 PM 86.5 °F 88.1 °F 64.9 °F 48% 29.77 in 10.0 mi SSE 19.6 mph - N/A   Clear
6:58 PM 84.7 °F 86.1 °F 64.4 °F 50% 29.78 in 10.0 mi SSE 17.3 mph 25.3 mph N/A   Clear
7:58 PM 78.6 °F - 64.8 °F 62% 29.80 in 10.0 mi SSE 5.8 mph - N/A   Clear
8:58 PM 75.9 °F - 65.3 °F 70% 29.81 in 10.0 mi SE 9.2 mph - N/A   Clear
9:58 PM 75.7 °F - 64.8 °F 69% 29.81 in 10.0 mi SE 11.5 mph - N/A   Clear
10:58 PM 76.8 °F - 66.2 °F 70% 29.81 in 10.0 mi SE 16.1 mph - N/A   Clear
11:58 PM 75.4 °F - 67.5 °F 76% 29.81 in 10.0 mi SE 15.0 mph - N/A   Clear